EW9965 Weather Reports


time (UTC)temp
C
wind
direction
speed
KPH
gust
KPH
rain 1hr
cm
rain 24hr
cm
rain mn
cm
humidity
%
barometer
mb
20260904184528 28 149 3.2 11.3 0.00 0.00 0.00 42 1013.3
20260904183027 27 174 4.8 11.3 0.00 0.00 0.00 45 1013.4
20260904181525 26 180 1.6 9.7 0.00 0.00 0.00 45 1013.5
20260904180119 26 228 3.2 9.7 0.00 0.00 0.00 51 1013.5
20260904174514 25 188 1.6 11.3 0.00 0.00 0.00 52 1013.6
20260904173017 25 169 1.6 9.7 0.00 0.00 0.00 55 1013.7
20260904171513 23 253 4.8 9.7 0.00 0.00 0.00 58 1013.7
20260904170002 23 197 1.6 9.7 0.00 0.00 0.00 62 1013.8
20260904164615 22 264 3.2 11.3 0.00 0.00 0.00 64 1013.7
20260904163052 22 247 0.0 6.4 0.00 0.00 0.00 67 1013.7
20260904161556 21 256 3.2 8.0 0.00 0.00 0.00 69 1013.5
20260904160044 20 253 0.0 6.4 0.00 0.00 0.00 71 1013.4
20260904154543 20 149 0.0 6.4 0.00 0.00 0.00 72 1013.5
20260904153041 19 44 0.0 6.4 0.00 0.00 0.00 74 1013.4
20260904151533 18 46 0.0 6.4 0.00 0.00 0.00 76 1013.3
20260904150026 18 24 1.6 4.8 0.00 0.00 0.00 79 1013.2
20260904144521 18 95 0.0 8.0 0.00 0.00 0.00 80 1013.2
20260904143019 17 93 1.6 6.4 0.00 0.00 0.00 81 1013.1
20260904141514 17 109 3.2 9.7 0.00 0.00 0.00 82 1013.0
20260904140012 17 139 0.0 8.0 0.00 0.00 0.00 83 1012.8
20260904134505 17 123 0.0 8.0 0.00 0.00 0.00 83 1012.8
20260904133004 17 119 1.6 6.4 0.00 0.00 0.00 83 1012.8
20260904131502 17 53 0.0 0.0 0.00 0.00 0.00 83 1012.5
20260904130002 17 39 1.6 6.4 0.00 0.00 0.00 83 1012.4
20260904124501 17 357 0.0 6.4 0.00 0.00 0.00 84 1012.4
20260904123100 17 357 0.0 6.4 0.00 0.00 0.00 84 1012.3
20260904121600 17 6 1.6 8.0 0.00 0.00 0.00 84 1012.3
20260904114603 17 72 0.0 0.0 0.00 0.00 0.00 85 1012.5
20260904113057 17 6 0.0 0.0 0.00 0.00 0.00 85 1012.6
20260904111557 17 29 0.0 3.2 0.00 0.00 0.00 85 1012.5
20260904110055 17 328 0.0 0.0 0.00 0.00 0.00 85 1012.5
20260904104610 17 239 0.0 0.0 0.00 0.00 0.00 85 1012.5
20260904103059 17 239 0.0 0.0 0.00 0.00 0.00 86 1012.5
20260904101554 17 228 0.0 0.0 0.00 0.00 0.00 86 1012.4
20260904100112 17 228 0.0 0.0 0.00 0.00 0.00 86 1012.5
20260904094600 17 155 0.0 0.0 0.00 0.00 0.00 86 1012.4
20260904093052 17 155 0.0 0.0 0.00 0.00 0.00 86 1012.4
20260904091551 17 155 0.0 0.0 0.00 0.00 0.00 86 1012.4
20260904090050 17 155 0.0 0.0 0.00 0.00 0.00 86 1012.5
20260904084549 17 155 0.0 0.0 0.00 0.00 0.00 86 1012.5
20260904083050 16 155 0.0 0.0 0.00 0.00 0.00 85 1012.6
20260904081546 16 155 0.0 0.0 0.00 0.00 0.00 84 1012.7
20260904080044 16 155 0.0 0.0 0.00 0.00 0.00 84 1012.7
20260904074543 17 155 0.0 0.0 0.00 0.00 0.00 83 1012.8
20260904073040 17 155 0.0 0.0 0.00 0.00 0.00 82 1012.7
20260904071538 17 155 0.0 0.0 0.00 0.00 0.00 82 1012.8
20260904070041 17 155 0.0 0.0 0.00 0.00 0.00 81 1012.8
20260904064533 17 155 0.0 0.0 0.00 0.00 0.00 81 1012.9
20260904063035 18 155 0.0 0.0 0.00 0.00 0.00 80 1012.8
20260904061532 18 155 0.0 0.0 0.00 0.00 0.00 80 1012.6
20260904060057 18 155 0.0 0.0 0.00 0.00 0.00 79 1012.7
20260904054531 18 155 0.0 0.0 0.00 0.00 0.00 79 1012.8
20260904053100 18 155 0.0 3.2 0.00 0.00 0.00 78 1012.6
20260904051538 18 155 0.0 3.2 0.00 0.00 0.00 78 1012.8
20260904050034 19 155 0.0 3.2 0.00 0.00 0.00 77 1012.8
20260904044530 19 247 0.0 3.2 0.00 0.00 0.00 76 1012.7
20260904043029 20 213 0.0 3.2 0.00 0.00 0.00 75 1012.6
20260904041529 20 203 0.0 1.6 0.00 0.00 0.00 74 1012.6
20260904040028 20 209 0.0 1.6 0.00 0.00 0.00 73 1012.4
20260904034527 20 203 0.0 1.6 0.00 0.00 0.00 72 1012.4
20260904033027 20 224 0.0 3.2 0.00 0.00 0.00 71 1012.4
20260904031526 21 217 0.0 1.6 0.00 0.00 0.00 69 1012.2
20260904030026 21 243 0.0 9.7 0.00 0.00 0.00 68 1012.1
20260904024528 21 254 0.0 6.4 0.00 0.00 0.00 66 1012.1
20260904023024 22 236 0.0 3.2 0.00 0.00 0.00 65 1011.9
20260904021524 22 173 3.2 12.9 0.00 0.00 0.00 64 1011.8
20260904020023 22 267 3.2 9.7 0.00 0.00 0.00 63 1012.0
20260904014523 23 251 3.2 8.0 0.00 0.00 0.00 62 1011.9
20260904013023 24 157 1.6 9.7 0.00 0.00 0.00 59 1011.9
20260904011522 24 248 3.2 9.7 0.00 0.00 0.00 58 1012.0
20260904010021 25 255 3.2 11.3 0.00 0.00 0.00 56 1012.0
20260904004519 26 255 4.8 14.5 0.00 0.00 0.00 53 1012.0
20260904003019 26 163 4.8 14.5 0.00 0.00 0.00 49 1011.9
20260904001518 26 225 6.4 19.3 0.00 0.00 0.00 50 1011.8
20260904000015 27 158 6.4 12.9 0.00 0.00 0.00 49 1011.7
20260903234515 27 91 4.8 16.1 0.00 0.00 0.00 49 1011.7
20260903233012 28 199 6.4 17.7 0.00 0.00 0.00 49 1011.8
20260903231512 28 164 6.4 14.5 0.00 0.00 0.00 47 1012.0
20260903230013 28 165 8.0 14.5 0.00 0.00 0.00 48 1012.0
20260903224509 28 224 6.4 16.1 0.00 0.00 0.00 48 1012.1
20260903223009 28 238 6.4 12.9 0.00 0.00 0.00 45 1012.2
20260903221506 28 224 4.8 14.5 0.00 0.00 0.00 45 1012.3
20260903220003 28 175 4.8 19.3 0.00 0.00 0.00 46 1012.3
20260903214502 28 124 8.0 19.3 0.00 0.00 0.00 47 1012.4
20260903213000 29 177 4.8 20.9 0.00 0.00 0.00 47 1012.4
20260903211600 29 156 9.7 22.5 0.00 0.00 0.00 46 1012.7
20260903210137 30 231 8.0 20.9 0.00 0.00 0.00 46 1012.5
20260903204558 29 172 11.3 19.3 0.00 0.00 0.00 45 1012.5
20260903203057 30 280 8.0 19.3 0.00 0.00 0.00 46 1012.6
20260903201556 30 214 6.4 20.9 0.00 0.00 0.00 44 1012.6
20260903200054 30 149 6.4 16.1 0.00 0.00 0.00 41 1012.6
20260903194552 30 182 9.7 16.1 0.00 0.00 0.00 33 1012.9
20260903193049 30 232 3.2 12.9 0.00 0.00 0.00 33 1013.0
20260903191548 29 103 4.8 9.7 0.00 0.00 0.00 33 1013.0
20260903190046 29 159 3.2 11.3 0.00 0.00 0.00 34 1013.3